Home   Weather   Patna   Past weeks

Flag for India Past Weather in Patna, Bihar, India — Yesterday and Last 2 Weeks

Now
90 °F

Haze.


Feels Like: 92 °F
Forecast: 65 / 89 °F
Wind: No wind

Location: Patna Airport

Current Time: Oct 23, 2018 at 12:57:27 pm

Latest Report: Oct 23, 2018 at 12:00 pm


Visibility: 2 mi

Pressure: 29.89 "Hg

Humidity: 46%

Dew Point: 66 °F

Location of PatnaLocation

Past Weather in Patna — Graph

°F

Patna Temperature Yesterday

Maximum temperature yesterday: 93 °F (at 2:00 pm)
Minimum temperature yesterday: 72 °F (at 4:30 am)
Average temperature yesterday: 81 °F

High & Low Weather Summary for the Past Weeks

 TemperatureHumidityPressure
High93 °F (Oct 8, 12:00 pm)100% (Oct 14, 3:30 am)29.98 "Hg (Oct 14, 3:30 am)
Low68 °F (Oct 15, 5:30 am)41% (Oct 15, 12:00 pm)29.68 "Hg (Oct 8, 3:30 pm)
Average80 °F75%29.83 "Hg
* Reported Oct 8 11:30 am — Oct 23 11:30 am, Patna. Weather by CustomWeather, © 2018

Note: Actual official high and low records may vary slightly from our data, if they occured in-between our weather recording intervals... More about our weather records

Advertising

Patna Weather History for the Previous 24 Hours

Scroll right to see more
 ConditionsComfort  
Time TempWeatherWind HumidityBarometerVisibility
11:30 am
Tue, Oct 23
88 °FHaze.No wind52%29.89 "Hg2 mi
11:00 am88 °FHaze.No wind55%29.92 "Hg2 mi
10:30 am84 °FHaze.No wind62%29.92 "Hg2 mi
10:00 am84 °FHaze.No wind62%29.95 "Hg1 mi
9:30 am82 °FHaze.No wind66%29.95 "Hg1 mi
9:00 am81 °FHaze.No wind70%29.95 "Hg1 mi
8:30 am79 °FFog.No wind74%29.92 "Hg1 mi
8:00 am75 °FFog.No wind83%29.92 "Hg1 mi
7:30 am73 °FFog.No wind78%29.92 "Hg1 mi
7:00 am73 °FFog.No wind78%29.89 "Hg1 mi
6:00 am72 °FFog.No wind83%29.86 "Hg1 mi
5:30 am72 °FFog.No wind83%29.86 "Hg1 mi
5:00 am72 °FFog.No wind94%29.86 "Hg1 mi
4:00 am72 °FFog.No wind94%29.83 "Hg1 mi
3:30 am72 °FFog.No wind94%29.83 "Hg1 mi
3:00 am73 °FFog.No wind89%29.83 "Hg1 mi
2:30 am73 °FFog.No wind94%29.83 "Hg1 mi
2:00 am73 °FFog.No wind89%29.83 "Hg1 mi
1:30 am73 °FFog.No wind94%29.83 "Hg1 mi
12:00 am75 °FFog.No wind89%29.86 "Hg1 mi
11:30 pm
Mon, Oct 22
75 °FFog.No wind89%29.86 "Hg1 mi
11:00 pm77 °FFog.No wind83%29.86 "Hg1 mi
10:30 pm77 °FFog.No wind83%29.86 "Hg1 mi
10:00 pm79 °FFog.No wind79%29.86 "Hg1 mi
9:30 pm79 °FFog.No wind79%29.86 "Hg1 mi
9:00 pm79 °FFog.No wind79%29.86 "Hg1 mi
8:30 pm79 °FFog.No wind79%29.86 "Hg1 mi
8:00 pm79 °FFog.No wind84%29.86 "Hg1 mi
7:30 pm81 °FFog.No wind79%29.83 "Hg1 mi
7:00 pm81 °FFog.No wind74%29.83 "Hg1 mi
6:30 pm81 °FHaze.No wind74%29.80 "Hg1 mi
6:00 pm82 °FHaze.No wind70%29.80 "Hg1 mi
5:30 pm84 °FHaze.No wind66%29.80 "Hg2 mi
5:00 pm86 °FHaze.No wind66%29.80 "Hg2 mi
4:30 pm88 °FHaze.No wind59%29.80 "Hg2 mi
4:00 pm90 °FHaze.No wind55%29.80 "Hg2 mi
3:30 pm91 °FHaze.No wind52%29.80 "Hg2 mi
3:00 pm91 °FHaze.No wind52%29.80 "Hg2 mi
2:30 pm93 °FHaze.No wind49%29.80 "Hg2 mi
2:00 pm93 °FHaze.No wind47%29.80 "Hg2 mi
1:30 pm91 °FHaze.No wind52%29.83 "Hg2 mi
1:00 pm91 °FHaze.No wind49%29.83 "Hg2 mi
12:30 pm91 °FHaze.No wind49%29.86 "Hg2 mi
12:00 pm91 °FHaze.No wind52%29.86 "Hg1 mi
Weather by CustomWeather, © 2018

See weather overview